This demonstration page uses our WeatherBlox Daily Observations layout. Learn more.

Left ArrowRight Arrow

38.20091, -84.87328

Hourly Observations for July 20, 2018

Temp ( °F °C ) Dew Point ( °F °C ) Humidity (%) Winds ( mph kmh ) Pressure ( in mb ) Visibility ( mi km ) Precip ( " mm )
12:53 am 00:53 Clear 69 20.6 62 16.7 78 78 Calm 29.91 1013 10 16 0.00 0.00
1:53 am 01:53 Clear 67 19.4 62 16.7 84 84 Calm 29.90 1013 10 16 0.00 0.00
2:53 am 02:53 Mostly Cloudy 69 20.6 62 16.7 78 78 Calm 29.88 1012 10 16 0.00 0.00
3:53 am 03:53 Partly Cloudy 71 21.7 62 16.7 73 73 Calm 29.88 1012 10 16 0.00 0.00
4:53 am 04:53 Mostly Cloudy 72 22.2 65 18.3 79 79 S 8 13 29.87 1011 10 16 0.00 0.00
5:53 am 05:53 Mostly Cloudy 73 22.8 67 19.4 81 81 S 8 13 29.88 1012 10 16 0.00 0.00
6:00 am 06:00 Mostly Cloudy with Nearby Thunderstorms 74 23.3 67 19.4 79 79 SSW 12 19 29.88 1012 10 16 0.00 0.00
6:14 am 06:14 Windy with Storms Likely 73 22.8 67 19.4 81 81 SW 28 44 29.91 1013 3 4 0.13 3.30
6:18 am 06:18 Cloudy with Strong Thunderstorms 70 21.1 67 19.4 90 90 SSW 14 22 29.88 1012 1 2 0.30 7.62
6:27 am 06:27 Cloudy with Strong Thunderstorms 69 20.6 66 18.9 90 90 WSW 10 17 29.91 1013 2 3 0.43 10.92
6:41 am 06:41 Cloudy with Strong Thunderstorms 70 21.1 67 19.4 90 90 WSW 9 15 29.91 1013 4 6 0.50 12.70
6:53 am 06:53 Cloudy with Thunderstorms 72 22.2 68 20 87 87 W 14 22 29.93 1014 3 5 0.56 14.22
7:17 am 07:17 Cloudy with Strong Thunderstorms 70 21.1 67 19.4 90 90 WNW 13 20 29.91 1013 2 3 0.19 4.83
7:22 am 07:22 Cloudy with Strong Thunderstorms 69 20.6 65 18.3 87 87 WSW 14 22 29.91 1013 1 2 0.38 9.65
7:30 am 07:30 Cloudy with Thunderstorms 70 21.1 65 18.3 84 84 SW 20 31 29.91 1013 2 3 0.43 10.92
7:33 am 07:33 Cloudy with Thunderstorms 71 21.7 66 18.9 84 84 SSW 15 24 29.88 1012 4 6 0.43 10.92
7:53 am 07:53 Partly Cloudy with Nearby Thunderstorms 70 21.1 67 19.4 90 90 SW 7 11 29.90 1013 10 16 0.43 10.92
8:04 am 08:04 Mostly Cloudy 70 21.1 67 19.4 90 90 SSW 8 13 29.91 1013 10 16 0.00 0.00
8:37 am 08:37 Mostly Cloudy with Nearby Thunderstorms 71 21.7 68 20 90 90 SSE 8 13 29.91 1013 10 16 0.00 0.00
8:53 am 08:53 Cloudy with Nearby Thunderstorms 71 21.7 68 20 90 90 S 5 7 29.91 1013 10 16 0.00 0.00
9:07 am 09:07 Cloudy with Thunderstorms 72 22.2 69 20.6 91 91 VRB 3 6 29.91 1013 10 16 0.00 0.00
9:17 am 09:17 Cloudy with Thunderstorms 70 21.1 68 20 93 93 undefined N/A 29.91 1013 9 14 0.01 0.25
9:21 am 09:21 Cloudy with Nearby Thunderstorms 70 21.1 67 19.4 90 90 NE 10 17 29.91 1013 9 14 0.01 0.25
9:53 am 09:53 Cloudy with Nearby Thunderstorms 70 21.1 67 19.4 90 90 E 9 15 29.92 1013 10 16 0.01 0.25
10:03 am 10:03 Cloudy with Thunderstorms 70 21.1 68 20 93 93 VRB 6 9 29.94 1014 10 16 0.00 0.00
10:10 am 10:10 Cloudy with Thunderstorms 70 21.1 67 19.4 90 90 ENE 8 13 29.94 1014 10 16 0.00 0.00
10:22 am 10:22 Cloudy with Nearby Thunderstorms 70 21.1 66 18.9 87 87 ESE 5 7 29.94 1014 10 16 0.00 0.00
10:27 am 10:27 Cloudy 71 21.7 67 19.4 87 87 SE 7 11 29.91 1013 10 16 0.00 0.00
10:51 am 10:51 Cloudy 73 23 68 20 83 83 SE 10 17 29.91 1013 10 16 0.00 0.00
10:53 am 10:53 Cloudy 73 22.8 68 20 84 84 SSE 12 19 29.92 1013 10 16 0.00 0.00
11:53 am 11:53 Mostly Cloudy 78 25.6 71 21.7 79 79 SE 8 13 29.91 1013 10 16 0.00 0.00
12:09 pm 12:09 Mostly Cloudy 80 26.7 72 22.2 76 76 SE 10 17 29.91 1013 10 16 0.00 0.00
12:18 pm 12:18 Mostly Cloudy 80 26.7 72 22.2 76 76 SSE 12 19 29.91 1013 10 16 0.00 0.00
12:53 pm 12:53 Cloudy 84 28.9 73 22.8 70 70 S 10 17 29.89 1012 10 16 0.00 0.00
1:00 pm 13:00 Mostly Cloudy 84 28.9 73 22.8 70 70 S 13 20 29.88 1012 10 16 0.00 0.00
1:23 pm 13:23 Cloudy 84 28.9 73 22.8 70 70 S 16 26 29.88 1012 10 16 0.00 0.00
1:48 pm 13:48 Cloudy 84 29 73 23 70 70 S 13 20 29.85 1011 10 16 0.00 0.00
1:53 pm 13:53 Cloudy with Nearby Thunderstorms 85 29.4 73 22.8 68 68 S 17 28 29.85 1011 10 16 0.00 0.00
2:11 pm 14:11 Mostly Cloudy 86 30 74 23.3 67 67 SSW 14 22 29.80 1009 10 16 0.00 0.00
2:53 pm 14:53 Mostly Cloudy 87 30.6 73 22.8 63 63 SSW 18 30 29.82 1010 10 16 0.00 0.00
3:17 pm 15:17 Cloudy with Nearby Thunderstorms 83 28.3 73 22.8 72 72 SW 14 22 29.80 1009 9 14 0.00 0.03
3:31 pm 15:31 Mostly Cloudy with Thunderstorms 80 26.7 70 21.1 71 71 WSW 17 28 29.80 1009 7 11 0.01 0.25
3:42 pm 15:42 Cloudy with Strong Thunderstorms 69 20.6 61 16.1 76 76 W 29 46 29.88 1012 2 2 0.11 2.79
3:44 pm 15:44 Cloudy with Strong Thunderstorms 68 20 61 16.1 78 78 W 24 39 29.91 1013 1 1 0.19 4.83
3:53 pm 15:53 Cloudy with Strong Thunderstorms 67 19.4 63 17.2 87 87 WSW 13 20 29.94 1014 1 1 0.38 9.65
3:57 pm 15:57 Cloudy with Strong Thunderstorms 67 19.4 62 16.7 84 84 SSW 12 19 29.91 1013 1 2 0.04 1.02
4:06 pm 16:06 Cloudy with Strong Thunderstorms 66 18.9 62 16.7 87 87 ESE 15 24 29.80 1009 3 5 0.09 2.29
4:48 pm 16:48 Partly Cloudy with Nearby Thunderstorms 66 19 63 17 88 88 NE 9 15 29.80 1009 8 13 0.09 2.29
4:53 pm 16:53 Mostly Sunny 68 20 63 17.2 84 84 NE 7 11 29.81 1009 10 16 0.09 2.29
5:16 pm 17:16 Sunny with Nearby Thunderstorms 67 19.4 63 17.2 87 87 ESE 12 19 29.83 1010 10 16 0.00 0.00
5:45 pm 17:45 Mostly Cloudy 67 19.4 62 16.7 84 84 E 8 13 29.80 1009 10 16 0.00 0.00
5:53 pm 17:53 Mostly Cloudy with Nearby Thunderstorms 68 20 62 16.7 81 81 ESE 9 15 29.80 1009 10 16 0.00 0.00
6:29 pm 18:29 Sunny 67 19.4 61 16.1 81 81 SE 12 19 29.77 1008 10 16 0.00 0.00
6:53 pm 18:53 Mostly Sunny 67 19.4 62 16.7 84 84 SE 12 19 29.78 1009 10 16 0.00 0.00
7:53 pm 19:53 Mostly Sunny 68 20 64 17.8 87 87 SSE 8 13 29.76 1008 10 16 0.00 0.00
8:28 pm 20:28 Partly Cloudy with Nearby Thunderstorms 69 20.6 65 18.3 87 87 undefined N/A 29.83 1010 10 16 0.00 0.00
8:39 pm 20:39 Mostly Cloudy with Thunderstorms 70 21.1 63 17.2 79 79 NNW 22 35 29.88 1012 3 4 0.12 3.05
8:42 pm 20:42 Mostly Cloudy with Strong Thunderstorms 68 20 65 18.3 90 90 NNW 13 20 29.88 1012 1 2 0.27 6.86
8:53 pm 20:53 Cloudy with Strong Thunderstorms 67 19.4 65 18.3 93 93 Calm 29.86 1011 1 2 0.47 11.94
9:04 pm 21:04 Cloudy with Strong Thunderstorms 67 19.4 64 17.8 91 91 W 9 15 29.85 1011 2 3 0.13 3.30
9:11 pm 21:11 Cloudy with Strong Thunderstorms 67 19.4 64 17.8 91 91 SW 15 24 29.80 1009 3 4 0.18 4.57
9:19 pm 21:19 Cloudy with Strong Thunderstorms 67 19.4 65 18.3 93 93 SSW 10 17 29.80 1009 3 5 0.23 5.84
9:53 pm 21:53 Mostly Cloudy with Thunderstorms 69 20.6 64 17.8 84 84 S 13 20 29.80 1009 4 6 0.30 7.62
10:03 pm 22:03 Mostly Cloudy with Nearby Thunderstorms 68 20 64 17.8 87 87 SSW 15 24 29.80 1009 10 16 0.01 0.25
10:20 pm 22:20 Mostly Cloudy with Strong Thunderstorms 67 19.4 63 17.2 87 87 W 15 24 29.85 1011 2 3 0.13 3.30
10:23 pm 22:23 Mostly Cloudy with Strong Thunderstorms 66 18.9 63 17.2 90 90 WSW 14 22 29.85 1011 1 2 0.28 7.11
10:27 pm 22:27 Mostly Cloudy with Strong Thunderstorms 66 18.9 64 17.8 93 93 VRB 5 7 29.85 1011 1 1 0.39 9.91
10:33 pm 22:33 Cloudy with Strong Thunderstorms 66 18.9 64 17.8 93 93 Calm 29.85 1011 1 2 0.42 10.67
10:39 pm 22:39 Cloudy with Strong Thunderstorms 66 18.9 64 17.8 93 93 S 9 15 29.83 1010 3 5 0.45 11.43
10:53 pm 22:53 Mostly Cloudy with Thunderstorms 66 18.9 64 17.8 93 93 S 14 22 29.81 1010 10 16 0.45 11.43
11:01 pm 23:01 Mostly Cloudy with Light Rain 66 18.9 63 17.2 90 90 S 9 15 29.80 1009 10 16 0.01 0.25
11:25 pm 23:25 Mostly Cloudy with Nearby Thunderstorms 66 18.9 64 17.8 93 93 S 3 6 29.83 1010 10 16 0.01 0.25
11:33 pm 23:33 Mostly Cloudy with Thunderstorms 67 19.4 64 17.8 91 91 ESE 3 6 29.83 1010 10 16 0.01 0.25
11:48 pm 23:48 Mostly Cloudy with Nearby Thunderstorms 66 19 64 18 94 94 S 7 11 29.83 1010 10 16 0.01 0.25
11:53 pm 23:53 Mostly Cloudy with Nearby Thunderstorms 67 19.4 63 17.2 87 87 SSW 9 15 29.83 1010 10 16 0.01 0.25

Powered by AerisWeather